Hourly Data Report for May 14, 2020

TRENTON A
ONTARIO
Current Station Operator: DND

44°07'00.000" N
77°32'00.000" W
86.30 m
6158875
71621
YTR

Download Data

Hourly Data (May 2020)
Hourly Data Report for May 14, 2020
TIME
LST
Temp Definition
°C
Dew Point Definition
°C
Rel Hum Definition
%
Precip. Amount Definition
mm

Wind Dir Definition
10's deg

Wind Spd Definition
km/h
Visibility Definition
km
Stn Press Definition
kPa
Hmdx Definition


Wind Chill Definition


Weather Definition


00:00 2.4 -3.3 64     0 24.1 101.55     Mainly Clear
01:00 1.7 -4.6 60   1 4 24.1 101.53     Mostly Cloudy
02:00 1.4 -3.1 70     0 24.1 101.53     Mainly Clear
03:00 -0.4 -4.4 71     0 24.1 101.50     Mainly Clear
04:00 -0.9 -5.6 67   36 4 24.1 101.50   -2 Mainly Clear
05:00 -1.5 -5.1 74   5 5 24.1 101.50   -3 Mostly Cloudy
06:00 2.6 -1.8 71   4 8 24.1 101.48     Cloudy
07:00 5.0 -0.3 68   3 4 24.1 101.54     Cloudy
08:00 8.0 0.4 59   11 4 24.1 101.47     Cloudy
09:00 10.6 -0.4 46   10 8 24.1 101.38     Mostly Cloudy
10:00 13.0 -2.6 33   15 15 24.1 101.27     Mostly Cloudy
11:00 14.6 -1.4 33   16 15 24.1 101.17     Mostly Cloudy
12:00 14.9 -0.3 35   14 11 24.1 101.06     Mostly Cloudy
13:00 15.3 -0.2 35   19 13 24.1 100.97     Mostly Cloudy
14:00 14.8 -0.3 35   16 9 24.1 100.84     Cloudy
15:00 15.2 0.9 38   14 11 24.1 100.72     Cloudy
16:00 14.9 -0.6 34   13 9 24.1 100.63     Cloudy
17:00 14.3 0.3 38   8 8 24.1 100.58     Cloudy
18:00 13.2 0.8 43   6 8 24.1 100.46     Mostly Cloudy
19:00 12.9 0.4 42     0 24.1 100.47     Cloudy
20:00 12.7 0.9 44   7 4 24.1 100.41     Cloudy
21:00 12.1 1.9 50   6 4 24.1 100.37     Cloudy
22:00 12.3 2.7 52   19 4 24.1 100.30     Cloudy
23:00 11.1 5.3 67   21 8 19.3 100.25     Cloudy

Notes on Data Quality.

Legend

  • E = Estimated
  • M = Missing
  • NA = Not Available*
  • [empty] = Indicates an unobserved value
Date modified: